Hourly Weather Allerona

Today, 2 March, Tuesday

Time Temperature Precipitation Wind Pressure Humidity
00:00 +4°C° 0 mm 1 mps 732 mmHg 65%
01:00 +4°C° 0 mm 1 mps 732 mmHg 63%
02:00 +4°C° 0 mm 1 mps 732 mmHg 61%
03:00 +3°C° 0 mm 1 mps 732 mmHg 60%
04:00 +2°C° 0 mm 2 mps 732 mmHg 58%
05:00 +2°C° 0 mm 2 mps 732 mmHg 59%
06:00 +2°C° 0 mm 2 mps 733 mmHg 60%
07:00 +3°C° 0 mm 1 mps 733 mmHg 62%
08:00 +5°C° 0 mm 1 mps 733 mmHg 60%
09:00 +7°C° 0 mm 1 mps 734 mmHg 57%
10:00 +9°C° 0 mm 2 mps 734 mmHg 55%
11:00 +11°C° 0 mm 1 mps 735 mmHg 52%
12:00 +13°C° 0 mm 1 mps 735 mmHg 49%
13:00 +14°C° 0 mm 1 mps 735 mmHg 47%
14:00 +14°C° 0 mm 1 mps 735 mmHg 49%
15:00 +14°C° 0 mm 1 mps 735 mmHg 50%
16:00 +14°C° 0 mm 1 mps 735 mmHg 51%
17:00 +12°C° 0 mm 1 mps 735 mmHg 60%
18:00 +10°C° 0 mm 1 mps 735 mmHg 68%
19:00 +8°C° 0 mm 1 mps 735 mmHg 77%
20:00 +8°C° 0 mm 1 mps 735 mmHg 80%
21:00 +7°C° 0 mm 1 mps 735 mmHg 83%
22:00 +6°C° 0 mm 1 mps 735 mmHg 85%
23:00 +6°C° 0 mm 1 mps 735 mmHg 86%

Tomorrow, 3 March, Wednesday

Time Temperature Precipitation Wind Pressure Humidity
00:00 +6°C° 0 mm 1 mps 735 mmHg 87%
01:00 +5°C° 0 mm 1 mps 735 mmHg 87%
02:00 +5°C° 0 mm 1 mps 735 mmHg 87%
03:00 +5°C° 0 mm 1 mps 734 mmHg 87%
04:00 +4°C° 0 mm 1 mps 734 mmHg 87%
05:00 +4°C° 0 mm 1 mps 734 mmHg 87%
06:00 +4°C° 0 mm 1 mps 734 mmHg 86%
07:00 +4°C° 0 mm 1 mps 734 mmHg 86%
08:00 +6°C° 0 mm 1 mps 735 mmHg 77%
09:00 +9°C° 0 mm 1 mps 735 mmHg 69%
10:00 +11°C° 0 mm 1 mps 735 mmHg 61%
11:00 +13°C° 0 mm 1 mps 735 mmHg 55%
12:00 +14°C° 0 mm 1 mps 735 mmHg 50%
13:00 +16°C° 0 mm 1 mps 735 mmHg 45%
14:00 +15°C° 0 mm 1 mps 735 mmHg 47%
15:00 +15°C° 0 mm 1 mps 734 mmHg 48%
16:00 +15°C° 0 mm 1 mps 734 mmHg 50%
17:00 +13°C° 0 mm 1 mps 734 mmHg 59%
18:00 +10°C° 0 mm 1 mps 733 mmHg 68%
19:00 +7°C° 0 mm 0 mps 733 mmHg 77%
20:00 +7°C° 0 mm 0 mps 733 mmHg 78%
21:00 +6°C° 0 mm 0 mps 733 mmHg 79%
22:00 +6°C° 0 mm 0 mps 732 mmHg 80%
23:00 +5°C° 0 mm 0 mps 732 mmHg 81%

Day after tomorrow, 4 March, Thursday

Time Temperature Precipitation Wind Pressure Humidity
00:00 +5°C° 0 mm 0 mps 732 mmHg 82%
01:00 +5°C° 0 mm 0 mps 732 mmHg 83%
02:00 +4°C° 0 mm 0 mps 731 mmHg 83%
03:00 +4°C° 0 mm 0 mps 731 mmHg 84%
04:00 +4°C° 0 mm 0 mps 730 mmHg 84%
05:00 +4°C° 0 mm 0 mps 730 mmHg 83%
06:00 +3°C° 0 mm 0 mps 730 mmHg 82%
07:00 +3°C° 0 mm 0 mps 730 mmHg 81%
08:00 +5°C° 0 mm 0 mps 730 mmHg 73%
09:00 +9°C° 0 mm 1 mps 730 mmHg 66%
10:00 +11°C° 0 mm 1 mps 730 mmHg 58%
11:00 +12°C° 0 mm 2 mps 730 mmHg 56%
12:00 +13°C° 0 mm 2 mps 730 mmHg 53%
13:00 +13°C° 0 mm 3 mps 729 mmHg 51%
14:00 +12°C° 0 mm 3 mps 729 mmHg 54%
15:00 +12°C° 0 mm 3 mps 728 mmHg 57%
16:00 +12°C° 0 mm 3 mps 727 mmHg 60%
17:00 +10°C° 0 mm 3 mps 727 mmHg 70%
18:00 +8°C° 0 mm 2 mps 727 mmHg 80%
19:00 +7°C° 0 mm 1 mps 726 mmHg 89%
20:00 +6°C° 0 mm 1 mps 726 mmHg 90%
21:00 +6°C° 0 mm 1 mps 726 mmHg 91%
22:00 +6°C° 0 mm 1 mps 726 mmHg 92%
23:00 +6°C° 0 mm 1 mps 726 mmHg 92%

5 March, Friday

Time Temperature Precipitation Wind Pressure Humidity
00:00 +6°C° 0 mm 1 mps 726 mmHg 92%
01:00 +6°C° 0 mm 1 mps 725 mmHg 91%
02:00 +6°C° 0 mm 1 mps 725 mmHg 92%
03:00 +6°C° 0 mm 1 mps 725 mmHg 93%
04:00 +5°C° 0 mm 1 mps 724 mmHg 94%
05:00 +6°C° 0 mm 1 mps 724 mmHg 94%
06:00 +6°C° 0 mm 1 mps 724 mmHg 94%
07:00 +6°C° 0 mm 1 mps 724 mmHg 94%
08:00 +7°C° 0 mm 1 mps 724 mmHg 89%
09:00 +9°C° 0 mm 1 mps 724 mmHg 84%
10:00 +9°C° 0 mm 2 mps 724 mmHg 79%
11:00 +10°C° 0.1 mm 2 mps 725 mmHg 75%
12:00 +12°C° 0.1 mm 2 mps 725 mmHg 70%
13:00 +13°C° 0.1 mm 2 mps 725 mmHg 66%
14:00 +13°C° 0.3 mm 2 mps 724 mmHg 67%
15:00 +13°C° 0.3 mm 2 mps 724 mmHg 69%
16:00 +12°C° 0.3 mm 3 mps 724 mmHg 70%
17:00 +10°C° 0.1 mm 2 mps 724 mmHg 77%
18:00 +10°C° 0.1 mm 1 mps 724 mmHg 83%
19:00 +8°C° 0.1 mm 1 mps 724 mmHg 90%
20:00 +8°C° 0 mm 1 mps 724 mmHg 90%
21:00 +8°C° 0 mm 1 mps 725 mmHg 90%
22:00 +7°C° 0 mm 1 mps 725 mmHg 90%
23:00 +7°C° 0 mm 1 mps 725 mmHg 90%

6 March, Saturday

Time Temperature Precipitation Wind Pressure Humidity
00:00 +7°C° 0 mm 1 mps 725 mmHg 91%
01:00 +5°C° 0 mm 0 mps 725 mmHg 92%
02:00 +5°C° 0 mm 0 mps 725 mmHg 92%
03:00 +5°C° 0 mm 0 mps 725 mmHg 93%
04:00 +4°C° 0 mm 0 mps 725 mmHg 93%
05:00 +4°C° 0 mm 0 mps 726 mmHg 93%
06:00 +4°C° 0 mm 0 mps 726 mmHg 93%
07:00 +5°C° 0 mm 1 mps 726 mmHg 93%
08:00 +7°C° 0 mm 1 mps 727 mmHg 86%
09:00 +9°C° 0 mm 1 mps 728 mmHg 79%
10:00 +11°C° 0 mm 1 mps 729 mmHg 72%
11:00 +12°C° 0 mm 1 mps 729 mmHg 67%
12:00 +13°C° 0 mm 2 mps 729 mmHg 62%
13:00 +14°C° 0 mm 2 mps 729 mmHg 57%
14:00 +13°C° 0.2 mm 2 mps 729 mmHg 62%
15:00 +12°C° 0.2 mm 3 mps 729 mmHg 66%
16:00 +11°C° 0.2 mm 3 mps 729 mmHg 71%
17:00 +9°C° 0.1 mm 3 mps 729 mmHg 76%
18:00 +7°C° 0.1 mm 3 mps 729 mmHg 81%
19:00 +6°C° 0.1 mm 2 mps 729 mmHg 86%
20:00 +5°C° 0 mm 2 mps 729 mmHg 87%
21:00 +4°C° 0 mm 2 mps 729 mmHg 88%
22:00 +4°C° 0 mm 2 mps 730 mmHg 89%
23:00 +3°C° 0 mm 2 mps 729 mmHg 90%

7 March, Sunday

Time Temperature Precipitation Wind Pressure Humidity
00:00 +3°C° 0 mm 2 mps 729 mmHg 90%
01:00 +3°C° 0 mm 2 mps 729 mmHg 91%
02:00 +2°C° 0 mm 2 mps 729 mmHg 91%
03:00 +2°C° 0 mm 2 mps 729 mmHg 90%
04:00 +2°C° 0 mm 2 mps 728 mmHg 90%
05:00 +3°C° 0 mm 1 mps 728 mmHg 89%
06:00 +3°C° 0 mm 1 mps 728 mmHg 87%
07:00 +3°C° 0 mm 1 mps 728 mmHg 85%
08:00 +4°C° 0 mm 1 mps 728 mmHg 80%
09:00 +6°C° 0 mm 1 mps 729 mmHg 74%
10:00 +8°C° 0 mm 1 mps 729 mmHg 68%
11:00 +9°C° 0.1 mm 1 mps 729 mmHg 69%
12:00 +10°C° 0.1 mm 1 mps 728 mmHg 69%
13:00 +12°C° 0.1 mm 1 mps 728 mmHg 69%
14:00 +11°C° 0.5 mm 1 mps 728 mmHg 73%
15:00 +11°C° 0.5 mm 1 mps 727 mmHg 77%
16:00 +11°C° 0.5 mm 1 mps 726 mmHg 80%
17:00 +10°C° 0.5 mm 1 mps 726 mmHg 85%
18:00 +9°C° 0.5 mm 1 mps 726 mmHg 89%
19:00 +7°C° 0.5 mm 1 mps 725 mmHg 94%
20:00 +7°C° 0 mm 1 mps 725 mmHg 94%
21:00 +7°C° 0 mm 1 mps 725 mmHg 95%
22:00 +5°C° 0 mm 0 mps 725 mmHg 95%
23:00 +5°C° 0 mm 0 mps 725 mmHg 95%
Show more